Time,TemperatureF,DewpointF,PressureIn,WindDirection,WindDirectionDegrees,WindSpeedMPH,WindSpeedGustMPH,Humidity,HourlyPrecipIn,Conditions,Clouds,dailyrainin,SoftwareType,DateUTC
2013-01-20 00:02:00,12.0,8.0,30.35,NW,311,5.0,7.0,83,0.00,,,0.00,,2013-01-20 06:02:00,
2013-01-20 00:12:00,12.0,8.0,30.35,NW,311,5.0,7.0,83,0.00,,,0.00,,2013-01-20 06:12:00,
2013-01-20 00:22:00,11.0,6.0,30.36,NNW,328,9.0,12.0,81,0.00,,,0.00,,2013-01-20 06:22:00,
2013-01-20 00:33:00,11.0,7.0,30.35,NNW,327,8.0,8.0,83,0.00,,,0.00,,2013-01-20 06:33:00,
2013-01-20 00:42:00,11.0,7.0,30.35,NNW,327,8.0,8.0,83,0.00,,,0.00,,2013-01-20 06:42:00,
2013-01-20 00:53:00,11.0,7.0,30.36,NNW,341,6.0,8.0,82,0.00,,,0.00,,2013-01-20 06:53:00,
2013-01-20 01:02:00,11.0,7.0,30.36,NW,315,6.0,7.0,83,0.00,,,0.00,,2013-01-20 07:02:00,
2013-01-20 01:12:00,11.0,7.0,30.36,NW,315,6.0,7.0,83,0.00,,,0.00,,2013-01-20 07:12:00,
2013-01-20 01:22:00,11.0,6.0,30.36,NW,324,6.0,9.0,81,0.00,,,0.00,,2013-01-20 07:22:00,
2013-01-20 01:32:00,10.0,5.0,30.36,NW,321,7.0,10.0,79,0.00,,,0.00,,2013-01-20 07:32:00,
2013-01-20 01:42:00,10.0,5.0,30.36,NW,321,7.0,10.0,79,0.00,,,0.00,,2013-01-20 07:42:00,
2013-01-20 01:52:00,10.0,6.0,30.36,NW,325,6.0,6.0,82,0.00,,,0.00,,2013-01-20 07:52:00,
2013-01-20 02:02:00,10.0,6.0,30.35,NW,318,3.0,5.0,84,0.00,,,0.00,,2013-01-20 08:02:00,
2013-01-20 02:12:00,10.0,6.0,30.35,NW,318,3.0,5.0,84,0.00,,,0.00,,2013-01-20 08:12:00,
2013-01-20 02:22:00,10.0,6.0,30.35,NNW,333,6.0,7.0,85,0.00,,,0.00,,2013-01-20 08:22:00,
2013-01-20 02:32:00,10.0,6.0,30.35,NW,312,7.0,10.0,85,0.00,,,0.00,,2013-01-20 08:32:00,
2013-01-20 02:42:00,10.0,6.0,30.35,NW,312,7.0,10.0,85,0.00,,,0.00,,2013-01-20 08:42:00,
2013-01-20 02:52:00,10.0,6.0,30.35,NW,325,5.0,6.0,85,0.00,,,0.00,,2013-01-20 08:52:00,
2013-01-20 03:02:00,10.0,6.0,30.35,NNW,328,6.0,8.0,85,0.00,,,0.00,,2013-01-20 09:02:00,
2013-01-20 03:12:00,10.0,6.0,30.35,NNW,328,6.0,8.0,85,0.00,,,0.00,,2013-01-20 09:12:00,
2013-01-20 03:22:00,9.0,6.0,30.35,NNW,329,5.0,7.0,88,0.00,,,0.00,,2013-01-20 09:22:00,
2013-01-20 03:33:00,9.0,6.0,30.35,NNW,334,6.0,8.0,88,0.00,,,0.00,,2013-01-20 09:33:00,
2013-01-20 03:42:00,9.0,6.0,30.35,NNW,334,6.0,8.0,88,0.00,,,0.00,,2013-01-20 09:42:00,
2013-01-20 03:53:00,9.0,5.0,30.34,NNW,333,7.0,9.0,83,0.00,,,0.00,,2013-01-20 09:53:00,
2013-01-20 04:02:00,9.0,5.0,30.34,NNW,329,6.0,7.0,83,0.00,,,0.00,,2013-01-20 10:02:00,
2013-01-20 04:12:00,9.0,5.0,30.34,NNW,329,6.0,7.0,83,0.00,,,0.00,,2013-01-20 10:12:00,
2013-01-20 04:22:00,10.0,6.0,30.33,NNW,341,5.0,8.0,83,0.00,,,0.00,,2013-01-20 10:22:00,
2013-01-20 04:32:00,9.0,5.0,30.33,NNW,332,6.0,8.0,82,0.00,,,0.00,,2013-01-20 10:32:00,
2013-01-20 04:42:00,9.0,5.0,30.33,NNW,332,6.0,8.0,82,0.00,,,0.00,,2013-01-20 10:42:00,
2013-01-20 04:52:00,9.0,5.0,30.34,NW,314,3.0,6.0,83,0.00,,,0.00,,2013-01-20 10:52:00,
2013-01-20 05:02:00,10.0,6.0,30.34,NW,318,0.0,0.0,83,0.00,,,0.00,,2013-01-20 11:02:00,
2013-01-20 05:12:00,9.0,5.0,30.34,WNW,298,3.0,6.0,83,0.00,,,0.00,,2013-01-20 11:12:00,
2013-01-20 05:22:00,9.0,5.0,30.34,WNW,298,3.0,6.0,83,0.00,,,0.00,,2013-01-20 11:22:00,
2013-01-20 05:32:00,10.0,6.0,30.34,NW,314,1.0,3.0,85,0.00,,,0.00,,2013-01-20 11:32:00,
2013-01-20 05:42:00,10.0,6.0,30.34,NW,314,1.0,3.0,85,0.00,,,0.00,,2013-01-20 11:42:00,
2013-01-20 05:53:00,9.0,4.0,30.35,NW,322,5.0,6.0,81,0.00,,,0.00,,2013-01-20 11:53:00,
2013-01-20 06:03:00,10.0,5.0,30.34,NNW,334,3.0,5.0,81,0.00,,,0.00,,2013-01-20 12:03:00,
2013-01-20 06:12:00,10.0,5.0,30.34,NNW,334,3.0,5.0,81,0.00,,,0.00,,2013-01-20 12:12:00,
2013-01-20 06:23:00,9.0,5.0,30.34,NW,321,5.0,6.0,83,0.00,,,0.00,,2013-01-20 12:23:00,
2013-01-20 06:33:00,10.0,6.0,30.35,NW,318,2.0,5.0,84,0.00,,,0.00,,2013-01-20 12:33:00,
2013-01-20 06:43:00,10.0,6.0,30.35,NW,318,2.0,5.0,84,0.00,,,0.00,,2013-01-20 12:43:00,
2013-01-20 06:53:00,9.0,5.0,30.34,NW,315,5.0,6.0,84,0.00,,,0.00,,2013-01-20 12:53:00,
2013-01-20 07:02:00,10.0,6.0,30.35,NW,318,5.0,6.0,82,0.00,,,0.00,,2013-01-20 13:02:00,
2013-01-20 07:12:00,10.0,6.0,30.35,NW,318,5.0,6.0,82,0.00,,,0.00,,2013-01-20 13:12:00,
2013-01-20 07:23:00,9.0,5.0,30.35,NW,325,5.0,7.0,82,0.00,,,0.00,,2013-01-20 13:23:00,
2013-01-20 07:33:00,9.0,5.0,30.35,NNW,329,3.0,6.0,82,0.00,,,0.00,,2013-01-20 13:33:00,
2013-01-20 07:42:00,9.0,5.0,30.35,NNW,329,3.0,6.0,82,0.00,,,0.00,,2013-01-20 13:42:00,
2013-01-20 07:53:00,10.0,6.0,30.35,NNW,329,5.0,7.0,84,0.00,,,0.00,,2013-01-20 13:53:00,
2013-01-20 08:02:00,9.0,5.0,30.35,North,355,5.0,6.0,83,0.00,,,0.00,,2013-01-20 14:02:00,
2013-01-20 08:12:00,9.0,5.0,30.35,North,355,5.0,6.0,83,0.00,,,0.00,,2013-01-20 14:12:00,
2013-01-20 08:22:00,9.0,6.0,30.36,North,356,6.0,8.0,86,0.00,,,0.00,,2013-01-20 14:22:00,
2013-01-20 08:32:00,9.0,6.0,30.37,North,0,5.0,7.0,88,0.00,,,0.00,,2013-01-20 14:32:00,
2013-01-20 08:42:00,9.0,6.0,30.37,North,0,5.0,7.0,88,0.00,,,0.00,,2013-01-20 14:42:00,
2013-01-20 08:53:00,9.0,7.0,30.37,North,357,3.0,6.0,90,0.00,,,0.00,,2013-01-20 14:53:00,
2013-01-20 09:03:00,9.0,7.0,30.37,NNW,346,3.0,6.0,90,0.00,,,0.00,,2013-01-20 15:03:00,
2013-01-20 09:12:00,9.0,7.0,30.37,NNW,346,3.0,6.0,90,0.00,,,0.00,,2013-01-20 15:12:00,
2013-01-20 09:23:00,9.0,7.0,30.37,NNE,28,0.0,0.0,93,0.00,,,0.00,,2013-01-20 15:23:00,
2013-01-20 09:33:00,10.0,9.0,30.37,NW,313,2.0,3.0,94,0.00,,,0.00,,2013-01-20 15:33:00,
2013-01-20 09:42:00,10.0,9.0,30.37,NW,313,2.0,3.0,94,0.00,,,0.00,,2013-01-20 15:42:00,
2013-01-20 09:53:00,10.0,9.0,30.39,WNW,300,1.0,2.0,95,0.00,,,0.00,,2013-01-20 15:53:00,
2013-01-20 10:02:00,10.0,9.0,30.40,WNW,289,2.0,3.0,96,0.00,,,0.00,,2013-01-20 16:02:00,
2013-01-20 10:12:00,10.0,9.0,30.40,WNW,289,2.0,3.0,96,0.00,,,0.00,,2013-01-20 16:12:00,
2013-01-20 10:23:00,10.0,9.0,30.40,NW,318,2.0,3.0,97,0.00,,,0.00,,2013-01-20 16:23:00,
2013-01-20 10:33:00,10.0,9.0,30.41,NNW,347,3.0,3.0,97,0.00,,,0.00,,2013-01-20 16:33:00,
2013-01-20 10:42:00,10.0,9.0,30.41,NNW,347,3.0,3.0,97,0.00,,,0.00,,2013-01-20 16:42:00,
2013-01-20 10:53:00,10.0,10.0,30.42,NW,314,5.0,7.0,98,0.00,,,0.00,,2013-01-20 16:53:00,
2013-01-20 11:03:00,10.0,9.0,30.42,NW,311,6.0,7.0,97,0.00,,,0.00,,2013-01-20 17:03:00,
2013-01-20 11:12:00,10.0,9.0,30.42,NW,311,6.0,7.0,97,0.00,,,0.00,,2013-01-20 17:12:00,
2013-01-20 11:22:00,11.0,11.0,30.43,NNW,328,3.0,6.0,98,0.00,,,0.00,,2013-01-20 17:22:00,
2013-01-20 11:33:00,10.0,9.0,30.44,NW,322,5.0,6.0,97,0.00,,,0.00,,2013-01-20 17:33:00,
2013-01-20 11:42:00,10.0,9.0,30.44,NW,322,5.0,6.0,97,0.00,,,0.00,,2013-01-20 17:42:00,
2013-01-20 11:53:00,11.0,11.0,30.43,NW,312,7.0,8.0,98,0.00,,,0.00,,2013-01-20 17:53:00,
2013-01-20 12:02:00,11.0,11.0,30.43,WNW,301,6.0,7.0,98,0.00,,,0.00,,2013-01-20 18:02:00,
2013-01-20 12:12:00,11.0,10.0,30.42,NW,312,6.0,7.0,96,0.00,,,0.00,,2013-01-20 18:12:00,
2013-01-20 12:23:00,11.0,10.0,30.42,NW,312,6.0,7.0,96,0.00,,,0.00,,2013-01-20 18:23:00,
2013-01-20 12:33:00,12.0,11.0,30.42,NW,315,6.0,8.0,94,0.00,,,0.00,,2013-01-20 18:33:00,
2013-01-20 12:42:00,12.0,11.0,30.42,NW,315,6.0,8.0,94,0.00,,,0.00,,2013-01-20 18:42:00,
2013-01-20 12:53:00,12.0,11.0,30.41,WNW,294,6.0,9.0,95,0.00,,,0.00,,2013-01-20 18:53:00,
2013-01-20 13:02:00,11.0,10.0,30.41,WNW,302,7.0,9.0,95,0.00,,,0.00,,2013-01-20 19:02:00,
2013-01-20 13:12:00,11.0,9.0,30.40,WNW,287,10.0,14.0,93,0.00,,,0.00,,2013-01-20 19:12:00,
2013-01-20 13:22:00,11.0,9.0,30.40,WNW,287,10.0,14.0,93,0.00,,,0.00,,2013-01-20 19:22:00,
2013-01-20 13:33:00,11.0,9.0,30.40,WNW,287,10.0,14.0,93,0.00,,,0.00,,2013-01-20 19:33:00,
2013-01-20 13:42:00,11.0,9.0,30.40,WNW,287,10.0,14.0,93,0.00,,,0.00,,2013-01-20 19:42:00,
2013-01-20 13:53:00,12.0,10.0,30.40,WNW,303,10.0,14.0,91,0.00,,,0.00,,2013-01-20 19:53:00,
2013-01-20 14:02:00,12.0,10.0,30.40,WNW,289,10.0,15.0,90,0.00,,,0.00,,2013-01-20 20:02:00,
2013-01-20 14:12:00,12.0,10.0,30.40,WNW,289,10.0,15.0,90,0.00,,,0.00,,2013-01-20 20:12:00,
2013-01-20 14:22:00,12.0,10.0,30.40,NW,304,6.0,9.0,92,0.00,,,0.00,,2013-01-20 20:22:00,
2013-01-20 14:33:00,12.0,10.0,30.40,NW,309,7.0,10.0,92,0.00,,,0.00,,2013-01-20 20:33:00,
2013-01-20 14:42:00,12.0,10.0,30.40,NW,309,7.0,10.0,92,0.00,,,0.00,,2013-01-20 20:42:00,
2013-01-20 14:53:00,12.0,9.0,30.40,WNW,303,9.0,12.0,89,0.00,,,0.00,,2013-01-20 20:53:00,
2013-01-20 15:03:00,12.0,9.0,30.39,NW,318,6.0,8.0,89,0.00,,,0.00,,2013-01-20 21:03:00,
2013-01-20 15:13:00,12.0,9.0,30.39,NW,318,6.0,8.0,89,0.00,,,0.00,,2013-01-20 21:13:00,
2013-01-20 15:23:00,12.0,9.0,30.40,WNW,302,9.0,13.0,88,0.00,,,0.00,,2013-01-20 21:23:00,
2013-01-20 15:33:00,12.0,9.0,30.39,NW,305,9.0,17.0,88,0.00,,,0.00,,2013-01-20 21:33:00,
2013-01-20 15:43:00,12.0,9.0,30.39,NW,305,9.0,17.0,88,0.00,,,0.00,,2013-01-20 21:43:00,
2013-01-20 15:53:00,12.0,9.0,30.39,WNW,302,12.0,15.0,87,0.00,,,0.00,,2013-01-20 21:53:00,
2013-01-20 16:03:00,12.0,9.0,30.39,NW,316,10.0,15.0,86,0.00,,,0.00,,2013-01-20 22:03:00,
2013-01-20 16:12:00,12.0,9.0,30.39,NW,316,10.0,15.0,86,0.00,,,0.00,,2013-01-20 22:12:00,
2013-01-20 16:22:00,11.0,8.0,30.39,WNW,299,10.0,14.0,87,0.00,,,0.00,,2013-01-20 22:22:00,
2013-01-20 16:33:00,11.0,8.0,30.39,NW,310,8.0,12.0,87,0.00,,,0.00,,2013-01-20 22:33:00,
2013-01-20 16:43:00,11.0,8.0,30.39,NW,310,8.0,12.0,87,0.00,,,0.00,,2013-01-20 22:43:00,
2013-01-20 16:53:00,11.0,8.0,30.39,WNW,294,9.0,13.0,87,0.00,,,0.00,,2013-01-20 22:53:00,
2013-01-20 17:03:00,11.0,8.0,30.38,NW,307,7.0,10.0,87,0.00,,,0.00,,2013-01-20 23:03:00,
2013-01-20 17:12:00,11.0,8.0,30.38,NW,307,7.0,10.0,87,0.00,,,0.00,,2013-01-20 23:12:00,
2013-01-20 17:23:00,11.0,8.0,30.39,NW,312,5.0,5.0,89,0.00,,,0.00,,2013-01-20 23:23:00,
2013-01-20 17:33:00,11.0,8.0,30.39,NW,312,5.0,5.0,89,0.00,,,0.00,,2013-01-20 23:33:00,
2013-01-20 17:42:00,11.0,8.0,30.39,NW,312,5.0,5.0,89,0.00,,,0.00,,2013-01-20 23:42:00,
2013-01-20 17:53:00,11.0,8.0,30.39,NW,318,3.0,6.0,89,0.00,,,0.00,,2013-01-20 23:53:00,
2013-01-20 18:03:00,10.0,8.0,30.39,NNW,328,1.0,5.0,90,0.00,,,0.00,,2013-01-21 00:03:00,
2013-01-20 18:13:00,10.0,8.0,30.39,NNW,328,1.0,5.0,90,0.00,,,0.00,,2013-01-21 00:13:00,
2013-01-20 18:22:00,9.0,8.0,30.39,NNW,328,0.0,0.0,94,0.00,,,0.00,,2013-01-21 00:22:00,
2013-01-20 18:33:00,9.0,8.0,30.40,NNW,328,0.0,0.0,94,0.00,,,0.00,,2013-01-21 00:33:00,
2013-01-20 18:43:00,9.0,8.0,30.40,NNW,328,0.0,0.0,94,0.00,,,0.00,,2013-01-21 00:43:00,
2013-01-20 18:53:00,10.0,8.0,30.40,North,0,0.0,5.0,92,0.00,,,0.00,,2013-01-21 00:53:00,
2013-01-20 19:03:00,10.0,8.0,30.40,NNW,337,5.0,5.0,92,0.00,,,0.00,,2013-01-21 01:03:00,
2013-01-20 19:12:00,10.0,8.0,30.40,NNW,337,5.0,5.0,92,0.00,,,0.00,,2013-01-21 01:12:00,
2013-01-20 19:23:00,11.0,10.0,30.40,WNW,289,3.0,5.0,94,0.00,,,0.00,,2013-01-21 01:23:00,
2013-01-20 19:32:00,10.0,9.0,30.40,WNW,302,3.0,6.0,94,0.00,,,0.00,,2013-01-21 01:32:00,
2013-01-20 19:43:00,10.0,9.0,30.40,WNW,302,3.0,6.0,94,0.00,,,0.00,,2013-01-21 01:43:00,
2013-01-20 19:53:00,9.0,8.0,30.39,NW,304,6.0,7.0,95,0.00,,,0.00,,2013-01-21 01:53:00,
2013-01-20 20:03:00,10.0,9.0,30.39,WNW,293,5.0,6.0,96,0.00,,,0.00,,2013-01-21 02:03:00,
2013-01-20 20:12:00,10.0,9.0,30.39,WNW,293,5.0,6.0,96,0.00,,,0.00,,2013-01-21 02:12:00,
2013-01-20 20:23:00,9.0,8.0,30.38,WNW,301,5.0,7.0,96,0.00,,,0.00,,2013-01-21 02:23:00,
2013-01-20 20:33:00,10.0,9.0,30.38,NW,313,6.0,8.0,97,0.00,,,0.00,,2013-01-21 02:33:00,
2013-01-20 20:43:00,10.0,9.0,30.38,NW,313,6.0,8.0,97,0.00,,,0.00,,2013-01-21 02:43:00,
2013-01-20 20:53:00,11.0,10.0,30.38,NW,309,7.0,10.0,97,0.00,,,0.00,,2013-01-21 02:53:00,
2013-01-20 21:03:00,11.0,10.0,30.38,NW,308,9.0,10.0,96,0.00,,,0.00,,2013-01-21 03:03:00,
2013-01-20 21:12:00,11.0,10.0,30.38,NW,308,9.0,10.0,96,0.00,,,0.00,,2013-01-21 03:12:00,
2013-01-20 21:23:00,11.0,9.0,30.37,NW,315,8.0,9.0,91,0.00,,,0.00,,2013-01-21 03:23:00,
2013-01-20 21:33:00,11.0,8.0,30.37,NW,313,9.0,13.0,86,0.00,,,0.00,,2013-01-21 03:33:00,
2013-01-20 21:43:00,11.0,8.0,30.37,NW,313,9.0,13.0,86,0.00,,,0.00,,2013-01-21 03:43:00,
2013-01-20 21:53:00,11.0,8.0,30.37,NW,305,7.0,13.0,89,0.00,,,0.00,,2013-01-21 03:53:00,
2013-01-20 22:03:00,11.0,8.0,30.37,WNW,298,10.0,14.0,88,0.00,,,0.00,,2013-01-21 04:03:00,
2013-01-20 22:12:00,11.0,8.0,30.37,WNW,298,10.0,14.0,88,0.00,,,0.00,,2013-01-21 04:12:00,
2013-01-20 22:23:00,9.0,5.0,30.38,WNW,299,10.0,15.0,82,0.00,,,0.00,,2013-01-21 04:23:00,
2013-01-20 22:32:00,8.0,2.0,30.38,NW,306,14.0,17.0,77,0.00,,,0.00,,2013-01-21 04:32:00,
2013-01-20 22:42:00,8.0,2.0,30.38,NW,306,14.0,17.0,77,0.00,,,0.00,,2013-01-21 04:42:00,
2013-01-20 22:53:00,7.0,1.0,30.38,WNW,301,13.0,20.0,75,0.00,,,0.00,,2013-01-21 04:53:00,
2013-01-20 23:03:00,7.0,1.0,30.38,WNW,292,13.0,21.0,76,0.00,,,0.00,,2013-01-21 05:03:00,
2013-01-20 23:12:00,7.0,1.0,30.38,WNW,292,13.0,21.0,76,0.00,,,0.00,,2013-01-21 05:12:00,
2013-01-20 23:22:00,6.0,1.0,30.39,WNW,300,14.0,18.0,78,0.00,,,0.00,,2013-01-21 05:22:00,
2013-01-20 23:33:00,5.0,0.0,30.40,WNW,299,13.0,20.0,79,0.00,,,0.00,,2013-01-21 05:33:00,
2013-01-20 23:42:00,5.0,0.0,30.40,WNW,299,13.0,20.0,79,0.00,,,0.00,,2013-01-21 05:42:00,
2013-01-20 23:53:00,4.0,-2.0,30.40,NW,304,13.0,15.0,77,0.00,,,0.00,,2013-01-21 05:53:00,